Wind_Speed
21 22 24 26 27 29 30 31 33 34 34 34 33 34 35 35 35 36 37 38 39 39 38 40 39 39 38 38 38 39 39 39 39 39 41 41 41 39 39 36 34 35 31
23 26 27 28 29 31 32 33 34 36 36 36 36 37 39 39 40 39 39 39 40 41 41 42 43 42 43 43 43 42 41 39 41 43 42 43 43 42 41 39 38 36 35
22 24 27 29 32 34 36 37 38 39 40 40 39 38 38 39 40 41 42 43 44 44 43 42 43 44 43 45 46 46 46 45 43 45 44 44 45 45 45 43 41 38 39
28 30 33 35 38 40 41 43 44 46 47 47 47 47 46 45 45 44 43 43 43 45 47 47 46 46 47 46 47 47 48 49 48 49 48 47 47 48 48 46 46 45 42
33 36 37 37 35 32 30 28 29 32 37 43 46 47 48 49 49 49 49 49 48 48 48 49 49 48 48 50 50 50 50 50 50 52 52 52 52 51 50 50 50 49 47
31 27 23 22 22 23 23 23 21 20 19 20 22 29 36 42 45 46 47 49 51 52 53 53 53 53 52 51 52 53 53 53 53 53 54 53 55 57 55 53 53 52 51
17 18 19 20 21 21 20 20 20 20 20 20 19 19 19 20 20 23 28 34 40 46 49 52 55 57 58 57 55 54 54 54 54 57 57 57 57 56 59 58 58 57 56
21 21 20 20 21 21 21 21 21 21 21 21 21 20 19 19 18 18 18 18 19 21 26 34 42 49 54 57 58 58 59 58 59 58 58 60 61 61 60 58 60 63 62
25 26 27 27 25 22 21 22 22 22 21 21 20 20 20 20 20 19 19 18 17 18 19 19 22 27 34 44 51 55 57 58 60 62 63 62 61 62 63 63 62 63 65
28 29 29 29 29 28 26 24 23 23 21 21 20 19 19 19 19 18 19 20 20 20 21 21 22 22 24 27 32 38 44 50 56 59 63 65 67 67 66 65 64 64 66
27 27 28 28 29 29 29 28 26 23 21 21 21 21 21 21 21 21 21 21 22 22 23 24 26 26 27 27 28 30 34 38 41 46 52 60 67 70 70 70 69 68 67
25 26 26 26 27 28 28 29 30 30 29 26 25 23 22 22 22 22 21 21 20 20 19 19 20 22 26 30 32 32 32 34 37 40 42 45 51 60 69 73 74 74 73
22 22 22 23 24 25 27 28 28 29 30 29 28 27 25 23 23 24 23 23 22 21 21 22 22 21 22 22 21 22 29 36 39 40 43 44 46 49 54 62 68 76 79
21 21 22 22 22 23 24 25 26 28 27 26 26 27 27 25 25 25 26 26 26 25 25 25 25 25 25 24 25 26 26 26 25 29 41 48 50 50 51 54 57 61 68
20 20 20 21 21 22 23 25 25 26 27 26 26 27 27 27 26 26 27 27 27 27 28 29 29 29 30 30 31 33 33 34 35 36 37 35 37 45 54 58 58 59 61
18 19 19 20 20 22 23 25 24 24 25 26 27 27 26 26 26 27 26 26 27 27 28 29 30 31 30 30 32 34 37 40 42 45 47 48 47 47 48 48 51 58 66
17 17 19 20 22 23 24 23 23 24 24 24 25 26 26 26 27 28 28 28 28 28 28 30 31 33 34 35 36 40 43 46 49 51 53 55 56 56 56 56 57 56 55
16 17 19 21 22 23 24 24 25 26 26 27 27 28 29 30 31 30 29 29 29 30 31 31 32 35 38 41 47 52 57 56 53 52 53 57 62 66 66 66 64 64 63
15 17 19 20 22 22 23 23 25 25 26 28 29 29 31 31 31 31 31 31 30 31 31 33 33 36 39 46 52 58 57 49 48 54 55 54 53 59 71 74 73 71 69
16 17 19 20 21 23 23 24 25 26 27 28 30 30 31 31 32 32 32 32 31 31 32 33 35 37 41 49 56 61 52 47 49 52 49 45 44 46 55 71 75 74 73
18 19 20 22 23 24 24 25 25 26 28 29 30 30 31 32 33 33 33 33 32 32 33 34 37 40 45 52 59 62 48 48 49 47 47 45 44 39 38 43 57 68 69
19 20 22 24 24 24 25 26 26 27 28 29 30 31 32 32 33 34 34 34 32 32 33 34 38 42 47 52 56 61 47 46 50 45 43 43 44 40 37 36 37 43 51
20 21 22 24 24 24 25 25 26 27 28 30 30 31 32 33 33 34 36 35 33 33 34 36 38 43 47 51 55 59 52 40 44 45 42 39 39 40 38 35 33 32 35
20 21 22 24 24 23 24 25 26 27 28 30 30 31 33 33 33 34 35 34 33 33 32 34 37 42 45 51 53 58 58 40 37 39 42 43 40 37 37 35 30 30 32
22 21 23 23 23 21 23 24 25 26 28 29 30 31 32 33 34 34 35 34 32 33 32 34 37 42 45 49 53 56 59 41 40 40 41 42 45 40 36 32 29 30 28
19 19 20 21 20 20 21 23 25 26 27 29 30 31 32 32 33 34 35 34 32 32 32 34 36 41 45 48 51 54 58 44 39 40 41 41 44 40 35 34 31 28 27
Wind_Direction
302 299 298 296 293 290 289 288 286 283 279 275 274 272 271 268 264 263 262 262 261 259 255 257 254 254 254 254 254 251 246 248 251 252 254 257 258 254 252 250 246 251 252
303 303 303 302 300 299 297 294 291 288 286 283 279 276 274 272 269 265 262 261 262 262 260 256 256 256 255 255 254 254 255 250 249 251 250 253 256 256 255 251 248 246 250
311 308 307 304 301 298 296 293 289 287 285 282 279 277 276 275 273 271 269 267 264 263 261 261 260 259 258 256 256 254 253 254 251 251 250 251 254 256 256 255 252 247 246
313 309 305 301 297 294 292 289 287 285 283 281 279 277 275 273 272 270 269 268 267 266 266 263 261 260 260 261 258 258 255 253 252 252 252 251 250 251 253 254 254 250 246
312 309 308 307 306 307 309 308 303 296 289 284 280 277 275 273 271 270 269 266 264 264 264 265 264 261 260 261 261 260 258 256 255 252 253 250 251 249 249 250 252 253 250
317 320 327 331 329 329 329 331 334 337 335 326 311 294 285 278 273 270 269 268 268 264 263 262 264 265 263 260 260 261 261 259 258 254 253 253 250 250 248 246 249 250 251
351 355 358 354 351 349 350 348 347 344 341 344 343 332 323 313 303 292 284 279 273 267 264 263 264 263 263 263 260 259 261 262 260 259 256 255 255 252 249 247 246 247 248
22 16 9 0 353 348 346 343 341 340 337 335 333 332 333 331 328 320 314 302 292 284 276 270 266 262 259 261 262 260 257 255 257 257 257 257 256 255 253 249 247 246 247
38 31 24 14 2 352 344 340 338 337 338 339 336 333 329 325 321 318 315 313 309 302 294 285 278 273 270 265 261 259 259 257 253 253 254 254 254 255 255 253 249 247 246
50 46 39 33 26 13 1 351 344 343 345 347 346 343 338 335 331 328 321 316 313 308 301 295 290 284 278 275 271 267 264 262 258 254 252 252 252 252 253 253 252 250 247
57 53 48 43 39 36 31 25 15 358 343 338 334 334 332 329 326 324 323 321 318 316 313 310 306 301 293 284 276 274 273 269 265 261 259 255 251 251 250 250 250 249 248
60 56 50 45 41 37 35 33 32 34 35 34 31 28 28 29 30 28 25 23 18 14 10 0 347 329 312 298 288 283 278 274 272 269 265 261 258 254 252 250 248 248 246
58 54 50 42 36 31 30 30 28 29 28 27 28 25 25 27 29 27 23 20 16 11 6 358 357 350 346 346 343 321 294 280 276 273 271 268 264 261 257 255 252 248 247
52 48 45 41 36 31 25 21 21 22 19 19 19 19 20 17 11 9 6 2 360 356 352 349 347 344 341 335 332 329 321 315 307 289 275 270 269 266 262 259 257 255 251
43 39 33 32 26 24 21 23 20 21 19 18 14 11 11 7 4 0 358 356 353 349 345 342 339 336 334 331 327 323 318 311 304 298 292 283 278 272 266 262 260 258 254
33 27 21 21 20 20 21 19 17 14 12 11 8 6 4 1 359 357 353 350 346 345 342 340 336 331 326 323 321 316 311 305 300 297 294 289 283 277 272 268 265 260 254
26 22 19 18 18 19 18 14 10 8 7 7 3 360 357 356 353 350 348 344 340 338 334 331 330 331 329 327 324 319 314 310 305 296 289 284 280 278 275 272 267 263 260
20 19 15 10 8 8 7 6 6 6 4 3 0 358 356 355 351 351 349 344 340 339 339 336 331 332 333 333 330 326 324 316 310 306 300 291 281 273 269 266 263 262 259
12 8 3 2 2 3 4 5 2 1 359 357 356 355 354 353 350 350 347 345 343 340 338 336 336 335 337 334 330 327 324 318 319 317 312 305 292 277 267 262 261 259 256
359 359 355 356 358 1 360 359 358 355 354 352 352 351 352 349 348 350 347 345 343 341 338 338 339 340 339 336 334 335 327 321 324 328 326 321 311 292 276 266 262 260 260
347 347 348 350 354 356 354 353 351 349 348 348 349 348 348 350 350 349 347 345 344 342 340 341 341 340 341 340 340 339 328 327 329 336 340 337 332 324 305 284 268 263 263
337 341 345 346 347 349 349 347 347 347 346 346 346 347 348 349 352 349 346 345 344 341 341 343 343 342 341 341 340 341 330 330 329 334 338 340 336 329 318 302 286 274 266
331 335 337 340 341 339 343 344 346 345 344 345 346 347 347 348 350 349 347 345 343 341 341 344 342 343 343 343 343 342 341 327 329 329 332 336 335 327 318 308 298 283 271
323 326 331 333 335 335 338 342 343 344 344 345 345 347 347 348 348 349 348 344 342 340 340 343 342 344 344 346 346 346 348 330 328 326 328 331 334 330 320 311 296 290 279
321 325 328 329 332 335 337 339 341 342 342 343 344 345 346 349 348 349 347 344 341 340 340 343 343 346 347 349 350 350 351 338 333 329 329 328 330 333 325 316 303 297 286
328 331 331 332 335 335 336 338 339 340 341 343 344 345 347 350 349 348 347 344 342 341 340 344 345 347 351 351 353 353 354 349 342 341 337 333 330 333 328 324 311 299 286
Height
5863 5862 5860 5859 5857 5855 5853 5851 5849 5848 5848 5847 5847 5845 5845 5845 5846 5847 5847 5846 5847 5849 5851 5850 5851 5851 5853 5853 5854 5856 5859 5861 5861 5862 5862 5863 5864 5868 5870 5874 5876 5877 5879
5860 5857 5854 5853 5851 5849 5847 5846 5844 5842 5841 5840 5840 5839 5838 5837 5837 5839 5840 5839 5839 5840 5842 5844 5844 5845 5845 5846 5848 5849 5850 5854 5856 5855 5857 5858 5858 5861 5863 5866 5869 5871 5874
5856 5854 5851 5849 5847 5844 5841 5838 5836 5834 5832 5831 5831 5831 5830 5829 5829 5830 5831 5831 5832 5831 5833 5835 5836 5837 5838 5838 5840 5842 5844 5846 5850 5847 5851 5853 5852 5853 5856 5859 5862 5866 5869
5851 5849 5847 5844 5841 5838 5834 5831 5828 5825 5823 5821 5820 5820 5820 5819 5819 5819 5820 5821 5822 5823 5823 5825 5827 5829 5830 5830 5831 5833 5835 5838 5841 5842 5843 5845 5846 5847 5849 5851 5853 5857 5860
5847 5844 5839 5835 5832 5829 5826 5823 5819 5816 5813 5810 5808 5807 5807 5807 5807 5807 5808 5811 5812 5813 5814 5814 5815 5819 5821 5821 5823 5824 5826 5828 5831 5833 5834 5836 5836 5839 5843 5845 5846 5848 5852
5841 5836 5833 5830 5827 5824 5821 5818 5815 5811 5809 5805 5802 5799 5797 5797 5797 5797 5797 5798 5799 5802 5803 5804 5805 5806 5809 5813 5813 5813 5815 5818 5819 5822 5824 5826 5828 5830 5833 5838 5839 5840 5842
5838 5835 5831 5828 5825 5822 5818 5815 5812 5809 5806 5803 5800 5796 5794 5791 5790 5789 5788 5787 5788 5789 5790 5792 5793 5795 5795 5797 5801 5804 5805 5807 5809 5810 5813 5814 5816 5819 5822 5826 5829 5831 5833
5836 5833 5831 5827 5823 5820 5816 5813 5810 5807 5804 5801 5797 5795 5792 5790 5787 5786 5785 5783 5782 5781 5781 5781 5781 5782 5784 5784 5785 5789 5792 5796 5795 5799 5801 5802 5804 5806 5810 5815 5817 5820 5824
5836 5833 5829 5826 5822 5819 5816 5812 5809 5806 5802 5799 5796 5793 5790 5788 5785 5784 5782 5780 5779 5778 5777 5776 5775 5775 5774 5774 5775 5775 5777 5780 5783 5785 5787 5789 5792 5793 5796 5800 5805 5807 5810
5836 5833 5830 5827 5823 5819 5815 5811 5807 5804 5801 5798 5796 5793 5790 5787 5784 5782 5779 5778 5776 5774 5772 5771 5770 5770 5770 5768 5766 5765 5766 5767 5768 5771 5772 5774 5777 5780 5782 5785 5790 5794 5797
5837 5834 5831 5828 5825 5820 5816 5812 5808 5804 5801 5797 5795 5792 5789 5787 5785 5782 5778 5776 5774 5771 5769 5767 5765 5764 5763 5763 5762 5760 5758 5758 5758 5759 5759 5760 5762 5764 5767 5769 5773 5779 5783
5838 5835 5832 5830 5826 5823 5819 5815 5810 5807 5803 5798 5796 5792 5788 5786 5784 5781 5778 5775 5773 5770 5767 5765 5762 5759 5757 5755 5754 5754 5754 5752 5750 5749 5749 5749 5748 5749 5751 5754 5757 5760 5765
5840 5837 5834 5831 5828 5824 5820 5818 5815 5811 5806 5802 5799 5796 5791 5788 5785 5782 5779 5776 5773 5771 5768 5765 5761 5758 5756 5753 5750 5747 5745 5745 5744 5742 5739 5738 5738 5738 5738 5738 5740 5742 5746
5843 5840 5836 5833 5830 5827 5824 5821 5817 5810 5809 5806 5802 5797 5793 5790 5787 5783 5779 5776 5772 5769 5766 5763 5760 5756 5753 5750 5747 5744 5741 5739 5736 5733 5731 5729 5727 5726 5725 5724 5725 5726 5729
5847 5843 5839 5835 5832 5829 5826 5821 5819 5814 5809 5806 5803 5799 5793 5790 5787 5782 5779 5775 5771 5767 5763 5760 5756 5753 5750 5746 5743 5739 5735 5732 5728 5725 5722 5720 5716 5713 5711 5710 5710 5710 5712
5848 5844 5841 5838 5834 5830 5826 5822 5818 5816 5812 5806 5803 5798 5794 5791 5786 5781 5779 5774 5769 5765 5761 5757 5753 5749 5745 5742 5739 5735 5730 5725 5720 5715 5709 5706 5703 5701 5698 5695 5693 5695 5696
5849 5845 5842 5839 5835 5830 5827 5823 5820 5816 5811 5807 5803 5799 5795 5790 5785 5782 5777 5772 5767 5763 5758 5753 5748 5743 5738 5735 5732 5727 5721 5715 5709 5702 5696 5691 5686 5683 5680 5679 5677 5676 5677
5850 5847 5843 5840 5836 5832 5827 5823 5818 5814 5810 5806 5802 5798 5793 5788 5784 5780 5775 5770 5765 5759 5755 5749 5743 5738 5734 5728 5720 5713 5705 5698 5691 5684 5678 5670 5663 5660 5658 5656 5655 5656 5658
5850 5847 5843 5840 5836 5832 5828 5823 5818 5814 5810 5806 5801 5796 5791 5786 5782 5778 5772 5766 5761 5756 5751 5745 5741 5736 5729 5721 5713 5704 5693 5684 5676 5666 5656 5648 5641 5636 5631 5630 5630 5632 5634
5850 5847 5844 5840 5836 5831 5826 5822 5818 5814 5809 5805 5799 5794 5789 5786 5781 5774 5769 5764 5758 5753 5747 5741 5736 5731 5724 5715 5705 5693 5682 5671 5664 5653 5641 5629 5618 5611 5608 5605 5605 5607 5610
5850 5847 5843 5839 5834 5829 5825 5821 5816 5812 5807 5803 5798 5793 5789 5783 5777 5771 5766 5760 5755 5750 5743 5738 5732 5725 5717 5707 5695 5680 5668 5658 5650 5641 5629 5617 5605 5596 5590 5587 5585 5586 5587
5849 5846 5841 5837 5833 5828 5824 5820 5815 5810 5805 5801 5796 5791 5786 5780 5775 5769 5763 5757 5751 5745 5740 5734 5727 5719 5711 5702 5691 5677 5663 5649 5635 5630 5621 5609 5598 5589 5581 5576 5573 5571 5570
5847 5844 5840 5836 5832 5827 5823 5818 5814 5809 5804 5799 5794 5789 5784 5778 5772 5766 5760 5753 5748 5741 5735 5729 5722 5714 5705 5697 5686 5673 5659 5647 5632 5621 5615 5606 5595 5584 5576 5569 5564 5561 5559
5845 5842 5838 5834 5830 5826 5821 5816 5811 5807 5802 5797 5792 5787 5780 5775 5770 5764 5757 5750 5745 5739 5732 5727 5719 5711 5701 5691 5679 5666 5652 5641 5633 5621 5609 5600 5592 5582 5572 5563 5558 5554 5551
5842 5839 5835 5831 5827 5823 5819 5814 5809 5805 5800 5794 5789 5784 5778 5773 5767 5761 5754 5748 5741 5735 5730 5724 5716 5707 5697 5687 5675 5661 5645 5633 5625 5617 5606 5594 5583 5576 5567 5558 5552 5547 5543
5839 5836 5832 5829 5824 5820 5816 5811 5807 5802 5797 5792 5787 5781 5776 5770 5764 5758 5752 5745 5738 5732 5726 5720 5712 5703 5693 5682 5670 5657 5643 5630 5620 5610 5600 5590 5580 5572 5562 5553 5546 5540 5536